Theta_e
348 347 349 349 349 347 348 349 349 350 350 351 350 351 351 351 349 348 347 345 347 346 347 349 350 352 352 354 353 353 353 354 354 354 353 353 353 352 352 352 351 350 351 350 351 350 351 350 350 351 351 350 351 351 350 350 349 347 348 348 346 347 347 345 342 343 347 352 351 348 351 350 346 346 344 344 343 344 344 345 345 342 341 341 341
348 348 349 349 348 348 348 350 350 350 350 350 350 350 351 351 351 351 348 347 346 346 347 347 349 350 351 352 353 353 353 353 353 353 353 352 352 351 351 352 351 351 351 350 351 350 350 350 349 349 351 350 350 349 351 351 349 347 348 345 345 346 348 345 344 344 344 346 348 350 348 349 343 346 343 341 340 342 340 338 338 338 338 339 339
349 349 349 349 349 349 350 350 350 350 350 350 350 350 351 351 352 350 349 349 348 346 346 347 348 349 350 351 352 353 353 352 353 353 352 352 351 352 353 352 351 349 349 349 349 351 349 350 350 350 350 350 350 351 352 351 350 349 349 348 347 347 347 348 347 344 344 345 348 345 345 346 344 342 343 342 341 340 337 335 335 335 336 336 336
349 349 349 349 350 350 349 350 351 350 350 350 350 351 351 351 352 350 349 349 347 347 347 347 348 349 349 350 351 351 352 352 352 352 352 351 351 351 351 352 351 350 350 349 350 349 349 349 349 350 351 350 350 351 353 352 352 352 350 351 351 350 350 348 348 346 346 344 344 345 345 343 343 343 343 341 339 337 334 333 333 333 333 334 334
348 349 349 349 350 349 349 349 350 351 351 351 351 352 352 352 352 351 350 348 348 347 347 347 347 348 348 349 349 350 350 351 351 350 350 351 351 350 350 351 351 351 351 350 352 350 349 348 349 349 350 348 350 349 351 352 351 351 351 353 353 353 352 349 348 349 348 345 343 345 344 344 342 340 340 335 334 333 332 331 331 331 331 332 332
347 348 349 349 348 349 349 350 350 350 351 352 352 352 352 352 351 352 351 349 349 348 346 345 345 346 348 348 349 349 349 350 350 349 349 350 350 350 350 350 350 350 350 350 350 351 350 349 349 350 350 348 348 350 351 351 351 350 351 352 353 354 353 351 349 348 349 347 345 340 341 338 336 336 337 335 331 328 328 328 329 329 329 329 330
347 348 349 349 348 349 350 351 352 352 353 352 353 353 353 352 351 350 351 350 348 347 347 346 346 344 344 346 346 347 347 347 347 347 347 347 348 348 348 349 349 349 350 350 349 350 350 350 350 350 349 350 349 349 350 352 351 350 352 351 353 353 353 351 349 347 347 346 343 343 339 339 338 333 335 337 333 330 327 324 324 326 327 328 327
347 348 348 348 348 349 351 353 352 349 348 350 353 353 353 351 352 351 352 349 348 348 347 346 345 345 343 342 343 345 344 344 345 345 346 345 346 346 347 347 347 348 349 350 350 350 350 350 350 350 350 350 350 351 351 350 352 350 351 352 352 352 351 350 347 346 346 344 342 340 339 336 335 335 335 333 330 329 328 326 323 322 324 327 327
347 347 348 348 349 351 352 354 352 349 350 351 352 351 352 350 351 350 350 349 349 348 348 347 346 345 345 344 343 343 343 342 343 344 344 345 346 345 345 346 346 346 347 348 348 349 349 350 350 350 353 355 357 356 355 354 351 349 351 352 351 351 351 350 348 344 343 342 341 340 336 334 332 330 329 328 327 328 329 327 326 325 324 323 322
347 347 347 347 347 348 349 351 352 352 351 349 348 347 347 347 348 347 348 349 349 349 348 349 348 346 346 346 346 346 346 345 348 350 351 349 347 344 346 346 346 346 346 346 346 348 348 349 351 354 356 358 359 361 361 361 359 354 351 351 351 350 350 349 345 345 344 341 340 338 335 333 331 331 330 331 333 333 327 326 323 321 321 318 316
347 346 345 345 346 347 347 348 348 348 347 345 344 345 345 345 346 346 346 346 346 347 350 348 347 349 348 347 346 346 345 346 351 338 337 342 349 348 346 344 344 343 342 342 343 346 347 349 349 351 355 357 359 361 362 364 365 362 360 357 354 351 349 348 347 346 344 342 342 339 337 336 335 334 334 333 332 329 327 327 325 321 318 314 312
345 344 344 345 345 346 347 346 346 345 345 344 343 344 345 344 344 345 346 346 347 347 346 346 346 346 346 346 346 346 346 350 336 336 338 337 345 348 345 344 344 341 341 341 342 343 345 346 347 349 349 350 352 354 358 362 365 366 364 361 359 356 353 351 349 346 344 344 342 339 338 338 338 334 333 333 331 330 329 326 322 320 318 317 319
343 343 343 344 344 344 343 342 341 341 341 340 341 342 344 344 344 343 343 345 346 345 345 346 347 347 347 347 346 347 347 347 334 335 334 333 337 346 346 345 343 342 342 342 343 343 345 345 346 347 348 352 353 354 354 355 359 360 359 357 357 355 343 343 352 352 347 340 340 340 338 340 339 338 336 334 334 330 329 324 323 321 322 321 321
343 343 342 343 343 343 342 341 340 340 340 340 341 342 342 342 342 342 343 344 344 344 344 346 348 349 349 348 348 349 347 349 337 331 329 331 335 342 344 344 344 344 344 344 344 344 344 344 344 344 347 349 350 352 353 355 355 356 359 360 359 359 359 352 351 354 351 344 341 337 340 344 341 342 342 339 334 331 328 324 323 322 321 321 324
342 343 343 341 341 342 342 341 340 339 340 341 341 341 341 341 341 342 342 342 343 344 344 344 344 346 348 349 349 348 350 342 332 330 328 329 333 342 341 342 342 342 343 344 344 344 344 345 345 345 346 347 348 350 351 352 355 355 354 355 354 353 354 356 355 352 350 348 345 343 343 345 346 347 345 340 337 336 333 329 326 325 326 324 320
339 340 340 341 340 341 342 342 341 340 339 340 340 341 342 341 341 342 344 344 344 343 343 342 342 343 344 344 344 344 347 335 331 329 328 328 334 342 340 339 339 340 340 341 342 344 345 346 347 347 347 348 347 341 345 352 352 351 350 349 348 349 349 350 343 344 351 351 349 347 346 347 342 346 342 339 337 337 334 331 329 324 319 317 316
338 340 340 339 339 339 340 340 340 340 339 337 336 336 337 339 340 342 342 342 341 341 341 341 342 342 342 342 341 341 343 339 329 327 328 329 334 341 341 340 340 340 340 340 342 342 343 345 346 346 347 348 346 334 334 345 348 346 346 345 345 346 347 351 340 334 334 334 334 335 335 335 334 330 329 329 335 334 330 325 322 322 319 316 316
338 338 339 339 339 339 339 339 339 340 339 336 336 336 337 338 339 341 340 339 338 339 340 340 340 340 340 340 341 342 344 344 331 323 325 327 336 341 341 341 342 342 343 344 344 344 344 347 348 346 346 346 339 332 331 342 344 342 343 344 344 344 344 346 349 348 332 330 330 331 333 334 333 330 328 326 326 334 328 324 326 323 320 319 318
337 337 337 338 339 339 339 339 338 338 339 339 339 338 338 339 339 340 339 338 338 338 339 338 338 338 339 340 343 345 345 343 330 323 324 324 332 342 342 341 340 341 341 342 343 345 346 348 348 349 349 346 331 328 328 339 346 344 344 343 343 343 344 347 346 347 349 345 342 342 340 336 339 340 339 330 335 337 332 332 328 323 321 321 321
339 339 339 338 338 338 338 338 338 338 338 340 340 340 340 339 338 338 338 339 339 338 339 339 338 340 341 342 342 344 344 345 343 323 319 320 325 340 341 339 338 339 340 340 341 343 345 345 346 339 331 327 322 319 319 321 340 345 343 341 341 341 346 347 347 347 348 348 348 347 345 346 346 344 343 340 336 336 333 333 327 324 324 323 321
339 338 338 337 337 336 337 337 338 338 339 340 340 340 340 339 338 337 338 338 338 338 339 340 340 341 342 343 342 342 343 344 343 324 318 319 322 331 341 341 341 341 341 341 342 342 343 345 346 339 318 314 313 312 311 313 322 335 341 342 343 344 345 348 347 344 348 349 348 348 347 346 346 344 342 341 336 336 335 333 331 327 326 324 321
341 340 339 338 338 338 338 338 339 340 341 340 338 338 338 338 338 338 338 339 339 339 339 338 336 336 337 338 339 339 341 343 344 330 321 319 319 320 338 341 336 337 337 338 339 340 340 339 339 330 317 314 312 310 310 312 315 327 332 324 325 326 335 341 344 345 345 345 345 345 346 345 345 343 341 340 338 336 336 335 332 329 329 330 326
342 340 340 338 339 339 339 340 342 342 341 340 338 337 336 337 338 337 336 335 333 332 331 330 332 333 334 336 335 337 338 339 341 334 318 313 314 317 318 326 320 334 333 332 332 332 333 331 331 326 314 308 306 307 309 312 320 325 316 314 316 318 325 330 334 336 338 340 341 341 342 343 343 342 341 339 338 337 336 335 334 332 331 332 331
342 341 341 340 341 341 342 344 343 341 342 338 336 334 333 331 333 333 331 332 330 330 329 328 329 330 331 331 332 335 338 337 338 334 323 314 311 312 314 315 317 327 329 329 329 329 327 326 324 310 305 303 304 307 310 316 321 311 310 312 314 319 325 327 328 330 332 333 334 336 337 340 341 339 339 339 339 338 337 336 335 334 331 330 331
342 342 342 341 341 341 342 342 340 340 342 340 339 336 334 333 333 330 333 331 330 330 329 332 330 328 327 328 327 332 336 335 333 333 330 323 316 315 317 319 317 316 327 328 328 326 320 310 307 307 310 310 312 316 319 322 316 314 313 315 324 326 326 327 328 329 329 330 332 335 337 339 341 341 339 339 339 338 336 336 336 334 333 331 330
341 339 339 339 339 340 339 338 338 339 339 340 340 337 336 335 334 331 331 330 330 329 329 331 331 329 327 324 325 328 333 335 333 332 334 333 324 317 316 321 324 322 323 324 321 317 314 312 313 314 318 320 325 326 326 325 321 322 322 325 326 326 326 325 326 326 327 330 331 332 335 332 328 326 328 331 333 333 333 332 331 328 327 325 323
342 339 339 339 338 338 338 336 333 332 333 333 333 336 337 336 335 335 330 328 328 328 329 332 331 329 328 326 324 326 328 331 332 333 333 332 330 329 328 327 324 324 326 325 323 323 323 324 321 315 315 317 322 322 321 323 323 323 322 323 323 325 325 326 325 326 327 328 329 327 322 323 325 327 326 327 327 324 326 330 329 326 325 324 321
340 337 336 338 337 335 336 342 333 328 326 327 328 328 329 332 333 332 330 328 328 327 328 330 330 329 327 324 322 322 325 326 327 324 325 325 324 324 326 327 325 324 324 324 323 323 323 322 322 324 324 323 322 321 321 321 322 321 321 321 321 322 324 325 326 322 320 320 321 321 320 320 321 321 321 321 320 321 323 323 321 321 323 322 318
338 334 333 333 337 344 338 341 329 326 322 320 315 315 318 322 324 322 319 319 321 322 324 324 327 324 322 322 322 322 324 323 320 311 313 308 313 317 322 323 323 324 323 315 320 322 322 321 321 321 320 319 319 318 319 319 320 320 320 320 320 320 320 319 318 317 317 318 318 318 319 318 318 319 319 318 318 318 321 320 320 320 320 320 318
333 331 331 333 335 335 333 330 327 325 321 320 318 318 314 305 307 318 321 321 312 305 305 316 311 314 318 320 321 322 322 321 308 301 298 298 298 299 302 300 302 315 310 311 319 319 318 318 319 318 318 318 318 317 317 317 318 319 319 318 319 318 318 317 316 316 317 317 317 317 317 317 316 317 317 316 316 318 319 318 317 319 317 316 314
333 331 333 334 338 336 331 327 326 323 322 321 320 320 318 316 300 300 309 313 306 296 295 297 300 303 311 316 317 313 312 306 300 297 297 297 296 295 296 300 299 297 301 316 319 317 317 317 317 317 317 317 317 317 317 316 317 317 318 318 317 317 317 316 316 317 317 317 316 317 317 316 316 316 316 316 315 316 317 319 319 318 317 316 314
334 332 331 332 339 339 330 330 327 324 322 321 321 321 320 320 321 303 299 305 303 298 296 295 295 296 299 302 309 314 309 302 297 296 296 296 295 295 297 298 296 296 297 306 317 318 316 316 316 315 316 316 316 317 316 316 316 316 316 316 316 316 316 315 316 316 316 316 315 315 316 316 315 315 315 315 315 315 315 316 317 317 318 318 317
333 331 332 335 338 340 337 333 329 326 324 323 322 322 321 322 323 325 316 299 299 299 298 296 294 295 295 294 294 296 296 296 296 296 295 295 296 296 296 296 296 294 302 315 317 316 316 316 315 316 315 314 315 316 316 315 316 316 316 315 315 315 315 316 317 316 315 315 315 315 315 315 315 315 315 315 315 314 315 315 316 316 316 315 315
334 332 332 334 333 332 335 336 333 328 327 325 325 324 324 324 324 324 324 326 323 307 295 294 294 294 293 293 294 294 294 295 295 296 295 296 296 296 296 302 297 293 304 317 316 316 316 316 316 316 315 315 315 315 315 315 316 316 316 315 315 315 316 317 316 314 315 315 315 315 315 314 314 314 313 314 314 314 314 315 315 314 313 314 313
333 339 340 338 331 332 332 331 333 332 330 329 330 331 329 330 330 328 327 328 329 330 332 317 299 294 302 299 294 293 294 295 296 296 296 296 297 296 299 315 318 318 316 318 317 317 316 317 317 317 316 315 315 315 315 314 315 315 315 316 315 315 315 315 315 315 314 314 314 314 314 314 314 314 314 313 313 312 313 313 314 314 313 313 313
333 333 334 339 336 332 332 331 331 331 333 333 334 335 335 336 335 335 331 331 331 330 330 325 316 306 299 295 295 295 294 295 296 296 295 295 295 300 316 315 316 316 317 318 318 318 318 318 317 317 316 315 315 315 314 314 315 315 315 315 315 315 315 315 314 314 314 314 313 313 313 313 313 313 313 313 313 312 311 312 313 313 313 312 312
333 333 332 333 334 332 331 331 331 331 332 334 335 335 336 337 337 337 336 334 334 332 330 324 317 317 311 315 306 295 295 295 295 295 295 295 295 309 316 316 316 317 317 318 319 320 319 320 319 318 316 316 315 315 314 314 314 315 315 315 315 315 314 315 315 315 314 313 313 313 313 312 312 312 312 311 311 312 312 312 312 313 313 313 312
332 332 332 332 332 332 330 330 332 334 335 334 334 334 336 335 336 336 336 336 334 332 331 325 323 321 321 320 319 316 307 298 295 295 296 298 306 314 315 316 317 317 318 319 319 319 319 320 319 318 317 316 315 315 314 314 314 314 315 315 315 315 315 316 316 315 315 314 313 313 313 312 313 312 312 312 311 311 312 312 312 312 313 313 312
331 330 330 332 333 333 331 332 333 332 332 332 332 334 334 333 333 333 333 334 334 334 332 327 324 324 324 322 318 319 315 315 316 317 316 314 314 316 316 316 316 317 317 318 318 319 319 319 320 320 318 316 315 315 314 314 314 313 315 314 314 315 316 316 314 315 314 314 313 313 313 313 313 313 313 313 312 312 312 312 312 312 312 311 310
330 330 331 331 332 333 335 335 334 332 334 333 332 333 334 334 333 333 332 331 331 331 330 329 328 327 326 321 319 318 317 319 319 320 319 317 317 316 315 316 316 317 318 319 318 318 318 319 320 320 319 318 316 315 314 314 314 314 314 314 314 314 315 316 314 314 314 313 313 313 313 313 313 313 313 313 313 312 312 312 312 312 312 311 311
330 332 334 329 330 331 334 335 332 333 332 333 332 332 331 333 333 334 333 332 332 332 332 332 331 330 326 320 311 312 321 322 322 321 321 320 320 319 318 317 317 318 319 319 320 320 320 320 320 321 320 319 318 316 315 314 314 313 313 313 313 314 314 315 314 314 313 313 313 313 312 312 312 312 311 312 312 312 312 312 312 312 312 312 311
330 329 330 329 329 331 330 331 330 330 329 329 329 330 331 332 332 331 332 333 333 333 333 332 332 331 321 309 303 301 315 321 322 321 321 321 321 321 321 320 320 320 320 321 321 320 321 321 322 322 322 321 319 317 315 314 314 313 313 313 313 313 313 314 315 314 314 313 313 313 312 312 312 312 313 312 313 312 312 311 312 312 312 311 311
330 330 330 332 331 331 329 328 329 328 328 329 330 331 330 330 329 330 330 331 332 333 332 332 332 332 328 312 309 303 313 319 321 321 321 321 321 321 321 322 322 322 322 322 322 323 322 322 322 323 323 322 320 318 316 315 315 314 313 313 313 313 313 313 314 314 314 314 313 313 313 313 313 312 312 313 312 312 312 311 311 312 312 311 311
328 328 328 328 327 328 327 327 326 327 328 329 328 328 328 326 327 327 327 326 327 327 328 328 329 329 329 316 309 309 314 317 318 319 319 320 320 321 321 322 322 322 323 323 324 323 322 323 323 324 324 323 322 320 319 318 316 315 315 314 313 313 313 313 313 314 314 314 313 313 313 313 313 312 312 312 311 311 311 311 311 311 311 312 311
328 328 327 326 327 326 326 327 326 326 326 325 325 324 326 325 325 326 326 326 326 325 325 325 326 326 326 325 320 318 318 319 318 319 319 319 320 320 321 321 321 322 322 323 324 324 324 325 325 325 324 324 322 320 319 318 317 317 316 315 314 313 314 314 314 315 315 315 314 314 313 313 313 312 312 313 311 311 311 311 311 310 310 310 311
329 329 328 327 327 327 326 326 326 325 325 324 324 324 325 325 325 325 326 326 325 324 324 324 324 324 323 324 323 322 321 320 320 319 319 320 320 320 321 321 322 322 323 324 325 326 326 326 326 326 325 325 324 322 320 319 318 317 317 317 316 316 317 317 316 315 315 315 315 315 314 313 313 313 312 313 312 311 311 311 312 311 311 310 310
327 328 328 328 327 326 326 327 326 325 325 325 325 324 324 325 325 325 325 325 324 324 323 323 322 322 322 322 322 322 322 322 322 321 321 321 322 322 323 323 322 322 323 323 324 325 325 325 326 326 325 325 325 324 322 320 319 317 317 316 316 316 316 316 316 316 316 316 315 315 314 314 313 313 313 313 312 311 311 311 310 311 311 310 310
324 324 325 325 325 324 324 324 323 324 324 323 323 323 323 323 323 323 322 322 321 321 320 319 318 318 318 318 319 319 319 320 320 320 320 321 322 323 323 323 323 324 323 324 324 325 325 324 323 322 322 322 322 323 323 321 320 319 318 318 317 317 314 308 317 317 317 316 316 315 315 314 314 313 313 314 312 312 311 310 310 311 311 310 310
322 322 321 321 322 321 320 320 320 320 320 320 320 320 320 320 319 319 319 318 317 317 316 314 314 314 314 314 314 314 314 314 313 314 314 314 315 316 317 317 318 320 322 322 324 324 325 323 320 318 317 316 316 317 318 318 318 318 318 319 316 306 303 302 309 316 310 316 316 315 315 315 314 313 313 313 313 312 312 312 311 310 310 310 310
320 320 320 319 319 319 319 319 318 318 318 318 318 318 318 318 317 316 315 314 313 313 312 312 312 311 311 311 311 311 310 310 311 311 311 311 312 313 313 313 313 313 314 315 316 318 319 312 308 308 309 308 308 308 307 306 304 302 301 299 293 293 296 297 299 301 311 316 316 316 315 315 315 314 313 313 314 313 312 312 311 311 311 310 310
318 317 317 317 317 317 316 316 316 316 317 316 316 316 316 315 314 313 312 311 311 311 311 310 310 310 311 310 311 310 309 309 309 309 309 308 309 309 310 310 310 310 310 310 310 311 313 310 305 304 304 303 303 303 303 302 301 299 296 294 292 289 287 287 300 298 296 302 316 316 315 314 314 313 313 313 313 313 312 312 311 311 311 310 310
Wind_Speed
11 11 9 9 9 10 9 9 10 8 8 7 7 7 6 7 7 6 5 6 6 6 7 8 8 7 7 7 8 7 8 7 6 6 6 6 6 6 6 5 7 6 6 7 5 5 6 7 7 6 4 4 4 3 3 4 3 4 3 4 5 4 6 6 6 6 1 3 5 7 9 11 8 7 10 8 8 7 6 6 7 4 4 4 6
11 11 11 10 10 10 8 7 8 8 8 8 8 7 7 7 7 6 7 6 6 7 7 7 7 7 7 8 8 8 8 8 7 5 6 6 6 4 5 6 6 7 6 7 7 5 6 7 8 7 5 5 5 5 4 4 4 4 4 5 5 6 6 6 7 6 5 5 6 7 9 11 8 8 10 9 8 8 7 5 4 4 4 4 4
10 10 10 10 10 9 7 7 7 8 9 8 9 9 8 8 7 8 7 6 6 6 6 7 8 8 8 8 8 7 8 8 7 6 6 7 7 6 6 6 7 7 7 8 8 6 6 7 8 7 4 5 6 6 5 5 5 5 6 5 6 6 5 7 5 5 6 6 7 7 8 11 9 9 9 8 9 9 8 6 5 4 3 3 4
5 7 7 7 8 8 7 6 7 8 8 8 9 9 8 8 7 8 8 7 7 6 7 7 7 8 8 8 8 7 8 7 7 6 8 7 7 8 7 7 7 7 7 7 7 7 8 8 7 7 6 7 7 6 5 5 5 5 6 5 6 7 6 6 8 7 4 5 7 8 8 8 6 7 7 8 9 7 5 5 5 5 5 4 4
6 5 5 6 6 6 7 7 8 8 9 8 9 9 9 8 8 9 8 8 8 7 7 7 8 8 7 8 8 8 8 8 8 7 6 6 7 7 7 7 7 7 8 9 8 8 8 8 9 7 6 7 7 6 6 7 6 5 6 6 6 5 4 5 6 5 5 6 6 5 6 6 4 7 9 8 6 5 4 5 6 5 6 5 4
5 6 4 6 6 7 7 7 9 9 9 9 9 8 8 8 8 7 8 8 8 7 8 6 7 8 7 8 7 8 8 8 8 8 7 6 7 7 7 8 7 7 7 8 8 8 7 9 9 8 7 8 8 8 6 8 6 6 7 6 6 4 5 5 5 6 6 5 6 6 7 7 4 5 9 8 9 7 5 4 4 4 6 7 6
8 8 6 7 7 7 8 8 8 6 5 7 6 7 7 8 8 8 7 8 8 8 7 7 7 7 7 7 7 7 8 7 7 7 8 7 8 7 7 7 8 7 7 8 8 8 9 8 8 9 9 9 9 9 9 8 6 8 8 8 7 5 5 5 5 6 6 5 6 7 8 6 7 7 6 6 4 5 9 8 7 5 4 8 9
9 8 7 7 7 7 6 5 2 0 6 9 8 7 7 5 4 3 4 5 6 7 7 7 7 6 7 7 7 6 7 7 6 6 6 7 6 7 8 7 8 8 8 8 8 9 9 10 10 9 10 9 10 10 9 8 6 7 7 6 6 7 6 5 6 6 5 5 8 8 7 7 5 3 5 7 7 3 6 8 10 11 10 8 9
5 6 6 6 6 5 4 4 6 9 8 7 6 3 4 5 6 5 5 5 5 5 6 6 6 6 6 6 6 6 6 6 5 6 6 7 7 7 7 8 8 8 8 8 8 9 8 8 8 9 9 13 15 13 11 10 8 8 9 7 8 8 7 5 6 7 5 6 7 5 6 7 6 8 9 10 13 11 10 6 5 4 7 7 4
5 4 4 4 3 2 3 3 3 5 3 3 6 6 5 4 6 6 6 4 2 5 6 5 5 6 6 5 5 5 5 4 5 8 5 4 3 2 3 4 5 6 7 8 9 8 9 9 8 14 16 16 17 18 17 16 15 11 10 9 9 8 7 6 8 6 7 8 9 8 8 9 10 11 11 15 8 5 9 9 8 6 6 3 2
4 5 5 5 6 5 4 4 2 1 4 6 5 3 3 2 1 2 2 3 3 2 4 6 6 4 5 6 6 5 4 4 7 5 4 3 3 3 2 3 2 2 2 5 7 8 8 8 8 10 13 14 14 18 19 17 17 18 17 14 12 11 8 8 8 10 9 10 8 10 11 12 13 11 11 11 11 11 9 10 9 8 9 10 8
7 6 6 5 5 5 4 1 1 2 3 4 5 5 5 5 5 5 4 4 3 3 5 6 7 6 5 3 4 4 4 8 10 8 6 6 4 2 4 4 5 6 7 7 7 8 9 9 8 7 8 10 10 10 13 17 17 17 19 16 14 17 16 13 10 8 11 7 6 8 8 12 12 9 9 8 10 9 8 9 11 11 10 10 9
5 4 4 3 3 2 1 2 2 2 3 4 4 3 2 2 4 5 5 4 4 5 6 6 7 6 5 5 5 5 6 7 8 3 6 7 8 7 5 6 7 8 8 8 10 9 8 8 7 7 7 12 11 10 10 10 13 17 17 17 16 17 16 17 14 8 8 8 9 9 12 13 10 11 13 13 9 10 9 8 8 9 11 14 11
6 5 4 4 3 2 1 2 2 2 3 4 4 3 2 3 4 4 4 4 5 5 6 6 5 5 4 5 5 6 6 6 2 9 9 11 13 11 8 10 10 10 11 11 9 10 10 9 9 9 9 9 9 9 9 9 10 7 6 6 8 11 13 15 15 13 11 11 11 14 15 13 13 11 12 13 12 13 12 12 11 11 12 14 9
6 5 4 3 2 2 3 3 2 1 1 2 3 4 3 3 3 2 1 2 3 4 4 5 5 4 4 4 3 2 2 5 13 12 11 14 16 13 10 9 8 8 8 9 10 11 11 10 10 10 9 8 8 9 9 9 7 6 8 7 4 5 6 9 11 11 9 10 12 14 14 12 13 11 4 8 13 13 13 15 18 16 8 5 6
4 3 3 3 3 3 4 3 3 3 2 3 3 3 5 5 3 1 1 2 3 3 4 4 5 5 5 4 4 5 3 7 11 8 9 11 14 7 5 6 7 7 7 8 9 9 9 9 9 9 9 8 9 12 12 7 6 6 6 6 6 6 8 11 14 11 12 13 13 13 12 13 11 9 12 15 13 9 8 5 6 7 8 8 7
4 3 4 4 3 5 5 5 4 4 4 3 2 3 1 1 2 3 4 6 6 6 6 6 5 4 4 4 4 4 4 3 8 11 12 14 9 4 4 5 5 7 8 7 7 8 8 7 7 7 7 8 9 10 11 7 1 2 7 10 9 9 11 9 12 15 16 18 19 19 19 19 14 14 16 20 14 12 8 8 10 11 10 10 7
5 6 6 7 8 7 5 4 4 3 2 3 5 5 5 4 4 5 5 5 5 5 5 5 4 4 4 4 4 4 4 4 7 13 14 14 10 6 5 5 6 7 8 7 6 7 8 13 11 8 8 8 9 10 10 5 8 10 12 10 9 10 10 8 6 9 17 18 19 20 20 20 17 15 15 17 19 17 14 15 16 12 13 12 13
6 9 8 7 6 4 2 1 1 1 3 5 5 4 4 4 2 3 4 4 4 3 3 4 4 4 5 5 6 6 5 5 7 12 15 14 10 6 5 5 6 7 6 7 6 6 7 7 11 10 9 9 11 11 10 6 8 11 12 11 11 12 10 8 11 11 9 9 12 13 14 16 14 12 12 19 23 21 18 17 9 13 15 14 10
6 9 5 3 3 3 2 2 2 3 5 5 5 5 4 3 2 2 3 4 5 5 4 4 5 5 5 5 4 5 5 5 4 9 13 14 14 8 5 5 7 7 6 6 7 7 6 7 7 7 11 11 10 9 8 7 8 8 9 10 11 15 7 9 11 10 11 11 12 11 13 13 12 13 13 13 16 20 18 15 15 17 16 15 14
4 8 7 5 6 3 2 2 3 4 5 4 2 3 2 3 2 3 3 2 3 3 4 4 4 4 4 4 4 5 5 6 6 10 10 12 13 11 5 6 6 6 6 6 6 6 6 6 6 4 8 8 6 6 7 7 6 6 7 9 10 10 6 8 10 12 12 12 12 11 11 11 11 11 12 11 13 15 16 15 15 17 16 15 15
4 4 6 6 3 4 1 2 4 4 3 2 2 3 2 2 2 2 2 2 3 3 3 3 3 3 2 1 2 2 2 1 2 6 8 7 6 7 3 1 3 3 4 4 5 5 5 5 5 7 10 10 10 8 8 6 6 4 7 10 13 13 10 7 8 8 9 9 9 10 10 10 10 10 11 11 11 14 16 15 16 17 16 16 18
5 5 4 4 4 3 4 5 4 3 3 3 3 3 2 1 2 1 2 1 1 1 2 1 2 4 4 4 4 4 5 4 1 4 4 5 6 5 5 3 2 2 2 3 4 6 6 6 7 11 12 13 11 10 9 9 7 6 8 10 11 12 9 8 8 9 9 8 8 9 9 9 10 10 10 10 10 13 15 16 17 17 17 15 13
9 7 5 6 6 7 6 5 5 5 6 6 5 5 4 2 2 1 1 1 1 1 1 1 1 1 2 3 2 2 3 1 4 6 4 5 4 3 3 3 3 3 2 2 3 4 5 6 7 10 10 11 11 10 10 8 7 10 9 8 8 7 5 5 6 7 8 9 10 10 10 10 8 6 7 7 9 12 14 15 15 16 16 14 13
10 11 11 10 8 7 5 4 4 3 3 5 5 4 4 3 3 1 1 1 0 2 3 2 3 3 3 3 3 3 3 1 2 4 6 6 4 3 2 1 3 3 3 3 4 4 5 7 8 8 9 10 10 9 6 5 6 7 8 8 7 4 4 5 5 5 7 8 8 9 9 9 9 8 7 6 8 9 9 11 13 14 12 11 8
8 7 7 6 5 4 4 3 2 2 2 2 3 3 4 4 4 3 3 2 1 0 3 3 3 3 4 3 3 3 4 4 2 2 3 4 2 2 2 4 4 2 2 3 4 5 6 7 6 6 6 6 6 5 4 5 7 8 8 8 4 5 5 5 5 7 8 8 8 9 9 5 3 2 2 3 5 6 6 7 6 6 8 9 9
7 6 6 5 4 4 5 3 2 0 1 0 1 1 2 2 2 2 2 2 2 2 2 2 3 2 3 2 2 2 3 3 4 4 5 4 4 4 4 3 1 2 5 6 5 4 5 5 5 6 6 6 5 5 5 6 6 6 5 5 4 4 5 5 5 6 8 8 7 6 4 2 1 1 1 1 3 1 1 5 7 8 9 8 10
7 6 6 4 4 4 4 5 4 1 1 2 1 1 2 1 3 4 4 4 4 4 3 3 3 2 3 1 1 2 3 2 3 4 5 5 5 5 5 5 5 4 5 5 5 5 5 4 4 3 4 4 4 5 5 5 5 5 5 5 5 5 6 8 7 3 2 3 4 3 2 2 2 1 1 1 1 1 1 2 2 3 2 6 8
6 6 5 4 3 2 2 3 3 3 1 2 2 2 2 2 1 1 3 3 3 3 3 3 3 3 2 1 1 3 1 1 2 2 3 3 2 3 4 4 4 5 5 5 5 3 3 3 3 4 6 6 6 6 6 7 6 5 5 6 6 6 6 5 5 5 4 3 3 3 3 3 2 3 3 3 4 3 2 5 5 6 6 4 3
6 5 5 5 3 3 2 2 3 2 2 2 1 1 5 6 4 3 2 5 8 7 4 1 2 3 4 4 3 3 3 2 2 4 3 4 3 2 4 6 5 5 7 7 3 3 2 3 3 4 6 6 6 6 6 6 6 7 6 7 6 6 6 6 6 5 5 5 5 4 4 3 3 3 3 4 4 4 4 5 5 6 5 6 9
4 4 4 4 4 4 4 3 3 3 3 3 2 1 1 2 4 6 5 6 5 4 3 2 2 1 1 3 4 5 7 7 8 8 8 7 5 5 5 4 5 5 7 4 2 2 3 3 3 4 3 4 5 5 5 6 6 6 5 5 6 6 6 5 6 5 5 4 4 4 4 4 4 3 4 4 4 4 5 4 5 6 7 9 10
5 4 3 3 2 3 3 5 4 4 3 2 2 2 1 1 2 1 1 1 1 2 2 2 1 1 1 1 3 3 3 6 10 11 10 8 7 5 4 4 4 5 3 1 2 2 2 2 3 3 3 3 3 4 4 4 4 4 4 5 5 5 5 4 3 3 3 3 3 4 4 4 4 4 4 4 5 5 6 6 6 7 7 7 8
4 3 2 2 2 2 2 3 3 4 4 3 3 2 2 2 2 3 2 3 5 5 4 4 3 3 2 1 3 5 6 8 9 8 7 6 5 3 1 1 2 4 1 1 1 3 2 2 2 3 2 3 2 2 2 3 3 3 3 3 4 4 3 3 3 3 3 3 3 3 3 4 4 5 5 5 5 6 6 7 7 8 9 11 10
3 3 3 3 3 2 2 3 4 4 3 3 3 3 3 2 2 2 3 3 3 4 5 5 4 2 3 4 5 5 5 5 5 4 3 2 2 3 4 3 4 2 0 1 1 2 2 3 3 3 3 2 2 2 2 2 2 2 2 2 2 2 2 2 2 3 2 3 3 3 3 4 3 4 4 4 4 4 4 4 5 6 5 7 9
2 2 4 4 3 3 3 2 2 3 3 3 3 3 3 3 4 3 3 4 4 5 4 1 2 5 3 4 5 5 4 4 3 3 2 3 3 3 3 3 3 1 1 1 1 2 3 3 3 3 3 3 3 2 2 1 1 1 2 2 1 1 2 2 2 2 2 2 3 3 3 4 4 3 4 4 4 4 4 4 3 4 6 6 6
1 1 1 2 3 3 3 3 3 3 3 3 3 3 3 4 4 4 4 3 4 3 4 1 1 4 8 6 5 5 4 4 4 4 4 5 3 2 1 2 2 2 3 3 3 3 3 3 3 3 2 3 2 2 2 2 2 2 1 2 2 1 0 0 1 1 2 2 2 3 3 3 4 4 4 4 5 4 4 4 4 3 4 4 4
2 0 1 2 3 3 3 3 3 3 2 3 3 3 3 3 3 3 3 3 3 3 4 3 1 1 4 3 6 3 4 4 4 5 5 5 3 2 2 2 3 3 3 3 3 4 4 4 3 3 3 3 3 3 2 2 2 2 2 2 2 2 1 1 1 1 1 2 2 2 3 3 3 3 4 4 4 4 4 3 3 3 4 5 5
2 2 2 1 2 2 2 2 2 3 3 3 3 3 3 3 2 2 3 4 3 3 3 2 1 2 3 2 6 4 3 4 5 4 3 2 2 4 3 3 3 4 3 3 3 3 4 4 3 3 3 3 3 3 3 3 3 3 3 2 2 3 2 2 2 2 1 2 2 2 2 3 3 3 3 4 4 4 4 4 4 5 5 5 5
2 3 3 3 2 2 2 2 1 1 1 2 2 2 2 2 2 2 3 3 3 3 3 2 2 3 3 2 2 3 4 1 3 3 3 4 4 5 4 3 3 4 4 4 4 4 4 4 3 3 3 3 3 3 3 4 3 3 3 3 3 3 3 2 2 2 2 2 2 2 3 3 3 3 3 4 4 4 4 4 4 4 5 4 3
3 3 4 5 3 2 2 2 1 1 1 1 1 0 0 0 1 2 2 2 3 3 2 3 3 5 3 2 3 4 3 4 4 3 3 4 5 6 5 5 5 5 4 4 4 4 4 4 4 3 3 3 4 4 3 4 4 4 3 4 4 4 3 3 2 3 3 2 2 2 3 3 3 3 3 3 4 4 5 5 4 4 4 5 4
4 4 4 3 2 2 3 3 2 3 2 2 2 2 2 1 1 2 2 3 3 3 3 3 4 4 3 6 7 8 4 4 3 3 3 3 3 4 5 5 5 6 5 5 5 5 5 5 4 4 4 3 3 4 4 4 4 4 4 4 4 4 3 3 3 3 3 3 3 3 3 3 3 4 4 3 4 4 4 4 4 4 4 5 5
3 4 5 4 3 4 4 4 3 3 4 3 3 3 2 2 1 2 2 3 3 3 3 3 4 3 4 9 10 12 6 4 3 3 3 3 3 4 4 4 5 5 5 6 5 5 4 5 5 4 4 4 3 4 4 4 5 5 4 5 5 4 4 4 4 4 4 4 3 3 3 3 3 3 3 4 4 4 5 5 5 5 5 5 5
5 5 5 5 6 6 5 4 5 5 6 5 4 4 4 4 3 3 3 3 3 4 4 4 4 3 2 4 6 7 5 4 3 4 3 3 3 3 4 4 4 4 5 6 5 5 5 5 5 5 5 5 4 4 5 5 5 5 5 5 5 5 5 5 4 4 4 4 4 4 4 4 4 4 4 4 4 4 4 5 5 5 5 6 6
6 6 6 6 6 6 6 6 6 6 5 5 6 5 5 4 4 4 5 5 5 4 4 4 5 5 4 1 2 2 3 3 3 3 3 3 4 4 4 4 4 4 5 5 5 4 5 5 5 5 5 5 5 5 5 5 5 5 5 5 5 6 6 6 6 6 5 5 4 4 4 4 4 4 5 4 5 5 5 5 5 5 5 5 6
7 7 8 8 8 7 7 6 6 6 6 6 6 6 7 6 6 6 6 6 7 7 7 7 6 6 5 3 1 1 2 2 2 3 3 3 3 4 4 4 4 4 5 5 4 4 4 5 5 5 6 6 5 4 5 5 6 6 6 6 6 6 7 7 7 6 5 6 5 5 4 5 5 5 5 5 6 6 6 6 6 6 6 5 6
8 7 7 7 7 7 6 6 6 6 7 6 6 6 7 7 7 7 7 7 7 7 7 8 8 8 7 7 5 4 3 2 3 3 3 2 3 3 3 4 4 4 4 4 4 4 5 5 5 6 6 6 4 4 4 5 5 6 6 6 7 6 5 5 5 6 7 7 7 6 6 5 6 6 6 6 5 6 6 6 6 6 7 7 7
8 7 7 7 7 7 7 7 6 7 7 7 6 7 7 7 7 7 8 9 7 7 8 8 8 8 8 8 8 8 8 8 7 5 4 6 7 5 4 4 4 4 4 4 4 4 4 4 5 5 6 6 5 4 4 4 4 5 6 6 6 6 5 4 6 7 7 7 7 6 7 7 7 6 7 7 6 6 6 6 7 8 7 7 7
7 7 6 7 6 7 7 7 7 8 7 7 7 7 7 7 7 8 8 8 9 9 9 8 8 8 8 8 8 8 8 9 9 10 10 9 8 9 9 8 6 7 5 4 4 4 3 4 5 5 5 6 5 4 3 3 3 4 4 5 5 6 6 5 5 6 5 6 7 8 7 7 7 6 7 7 8 7 7 7 7 6 7 7 7
6 6 6 6 6 6 6 7 7 7 7 7 7 8 7 8 8 7 7 7 8 8 8 8 8 8 8 8 8 8 8 9 9 9 9 9 8 8 9 8 9 9 7 7 6 6 6 8 9 8 9 9 9 9 8 7 7 6 5 5 5 9 10 10 7 6 7 6 6 6 7 7 7 7 7 8 8 7 8 7 7 7 7 7 7
6 6 7 7 7 6 6 6 6 6 7 7 7 7 7 7 8 8 7 7 8 8 8 8 8 8 8 8 9 9 9 9 8 8 8 7 7 8 8 9 9 9 9 9 9 9 9 10 9 8 8 8 8 8 8 8 8 8 8 9 15 15 13 8 11 10 8 6 7 7 8 7 7 7 7 8 8 8 8 8 8 7 7 8 8
7 7 7 7 7 7 7 7 7 7 7 7 7 7 8 8 7 8 8 8 7 8 8 8 8 8 7 7 6 7 7 8 7 7 7 8 8 8 7 7 7 7 7 9 9 9 9 9 10 9 8 8 7 7 7 7 7 9 11 15 17 15 14 12 5 8 11 9 6 7 7 8 8 8 7 7 8 8 10 9 8 8 8 8 8
Wind_Direction
179 187 189 203 202 200 192 190 198 193 190 194 199 200 197 194 194 192 178 202 197 194 197 202 200 200 200 204 206 206 210 213 211 209 208 219 219 224 223 205 218 233 235 250 237 238 234 239 243 239 212 238 241 243 239 227 213 215 206 200 205 186 181 194 214 241 193 207 179 181 182 175 177 168 161 160 161 157 143 150 152 138 140 139 138
186 183 190 196 202 206 203 193 197 202 195 191 198 201 198 196 193 191 195 198 192 198 199 198 200 202 203 206 208 208 210 214 210 200 207 219 226 218 225 216 223 235 231 246 242 233 237 240 248 244 208 229 241 243 233 226 211 209 202 202 209 203 202 190 218 221 211 184 193 181 179 185 174 181 168 163 155 156 151 143 133 138 135 136 136
187 189 188 187 196 200 201 202 195 201 204 199 199 203 206 199 190 197 202 201 197 199 198 202 203 204 209 211 211 209 209 209 210 206 211 213 221 224 222 218 221 229 228 235 239 234 238 240 249 247 219 232 237 238 234 233 218 212 211 201 212 213 199 206 185 209 205 205 189 178 185 191 189 183 178 169 162 167 152 148 142 129 124 127 129
237 199 190 188 185 190 198 206 205 205 208 210 205 204 205 205 194 199 201 203 203 205 202 200 201 203 207 212 208 213 211 211 208 203 209 211 218 226 222 220 223 225 230 235 233 225 231 242 249 244 235 238 247 242 233 236 229 220 222 208 212 218 195 196 210 208 189 180 199 192 190 180 191 174 171 165 167 162 148 131 130 128 131 130 124
260 238 197 190 186 190 199 203 215 215 214 211 212 206 209 204 199 200 197 201 206 206 211 206 203 199 203 206 210 210 213 210 213 209 208 212 219 226 231 227 226 228 231 236 236 230 229 231 243 240 220 234 247 242 234 230 231 227 232 214 214 215 192 194 206 197 178 196 194 196 170 177 158 164 164 153 149 142 130 137 149 139 131 134 130
207 242 204 195 203 203 207 208 217 219 219 219 217 210 207 202 197 195 194 201 203 205 208 205 204 203 202 206 209 212 214 213 213 215 209 211 216 224 233 234 232 230 232 235 234 231 229 234 238 233 217 218 237 238 229 229 224 222 228 226 220 200 200 195 194 202 203 199 173 174 179 172 160 175 179 161 156 148 146 130 113 134 140 149 158
196 214 207 207 211 214 212 215 221 235 245 234 219 216 212 208 202 200 193 200 202 204 204 205 210 203 204 203 207 211 215 215 217 216 220 221 222 224 229 232 236 234 232 234 233 232 234 235 238 233 229 224 231 234 228 221 214 223 219 224 212 199 201 199 190 199 202 188 196 193 188 196 176 171 175 174 180 158 161 152 167 169 166 168 168
192 199 203 218 223 223 220 222 124 273 245 251 243 226 223 219 230 239 214 210 206 211 209 203 203 203 202 203 208 208 210 218 220 223 224 224 224 228 229 234 236 239 242 240 237 237 235 236 238 237 233 233 232 236 225 226 213 221 225 213 201 195 205 194 198 200 196 194 202 198 192 176 164 129 140 161 173 202 197 175 172 179 188 184 180
196 200 206 220 233 234 224 217 176 209 233 243 247 291 348 9 23 19 352 316 290 252 219 215 201 201 202 203 201 204 205 214 215 215 218 222 219 226 232 234 241 249 250 250 248 244 242 238 238 238 233 235 232 231 226 217 213 222 229 208 208 203 205 190 193 196 197 205 210 192 175 178 179 160 168 186 199 197 185 177 176 162 162 169 179
179 185 197 208 229 234 240 228 208 221 245 30 39 61 81 136 182 189 205 199 211 294 285 253 217 202 196 196 198 198 210 204 221 226 232 241 237 283 326 315 314 312 302 292 278 263 250 245 242 240 240 239 241 239 235 223 216 216 225 208 207 207 200 192 202 195 198 206 210 190 191 198 193 192 192 204 195 135 160 182 181 152 137 126 149
169 172 188 193 199 204 206 220 193 153 131 176 183 134 172 214 75 109 162 186 236 241 292 306 302 280 208 185 187 186 185 193 175 150 155 175 168 157 144 124 140 174 225 264 274 277 273 262 260 258 253 250 247 245 243 235 222 221 221 207 202 197 198 197 205 200 200 210 199 196 206 210 209 201 202 196 192 187 178 178 177 160 177 171 193
172 177 190 190 191 194 198 209 115 126 128 115 122 153 181 183 176 180 184 187 177 164 212 232 237 241 241 224 209 204 196 183 176 182 158 89 79 130 141 166 189 218 228 236 249 256 260 260 251 245 250 251 254 257 255 252 243 230 229 218 202 208 206 201 201 199 207 202 213 220 223 224 215 188 200 184 191 190 179 170 180 181 178 196 195
143 151 172 169 185 161 128 149 138 114 117 113 125 147 198 178 185 199 203 186 169 200 218 221 227 223 220 221 224 218 222 199 200 182 80 123 151 160 185 188 202 222 227 233 243 250 254 259 265 257 252 247 249 249 248 253 254 253 247 242 234 227 225 225 221 210 154 174 209 217 214 223 214 209 198 194 170 181 173 181 189 197 201 205 209
133 147 162 186 175 134 143 177 179 134 90 101 114 153 203 226 218 205 207 210 214 221 234 234 229 226 218 214 218 220 221 231 140 95 131 148 164 177 198 200 206 214 220 222 223 231 235 242 250 257 251 242 239 238 239 241 245 247 251 235 223 233 230 223 232 222 190 193 192 212 224 213 220 216 204 186 181 188 183 194 188 191 199 212 207
134 148 161 165 121 162 208 219 187 103 144 148 134 148 193 235 247 238 208 235 238 237 210 204 226 230 236 234 238 241 225 118 115 136 144 165 181 191 209 215 221 228 234 241 241 240 241 242 242 245 248 245 241 238 240 240 230 200 219 222 202 217 221 224 217 207 202 211 212 218 226 218 224 226 169 173 207 199 193 200 196 196 178 68 66
119 127 177 152 120 186 213 195 154 153 174 203 201 176 176 183 183 171 218 263 263 254 241 226 229 229 225 234 250 269 299 114 125 127 169 185 194 205 219 227 230 234 233 233 236 243 244 239 237 241 245 248 250 245 244 247 204 217 232 239 232 227 229 227 224 217 208 215 217 221 225 226 221 196 172 194 198 187 179 96 108 130 158 175 173
150 206 210 128 165 195 190 167 149 157 168 182 206 241 209 167 183 185 219 225 228 231 241 241 243 234 229 237 244 257 269 200 159 179 218 229 216 233 220 236 250 243 245 238 236 238 242 239 236 245 248 249 248 243 245 233 112 296 246 240 238 239 243 234 217 222 220 217 222 224 227 225 205 190 186 189 186 175 143 144 178 179 176 188 187
193 217 215 173 185 190 174 159 172 189 190 222 226 217 220 219 208 200 217 225 234 243 250 262 264 257 256 250 226 238 248 230 183 178 211 232 230 222 223 234 244 251 257 254 244 244 246 247 244 245 248 253 245 241 243 193 178 210 234 237 240 245 249 244 238 230 225 227 227 228 229 230 221 210 197 187 180 170 171 192 196 176 192 193 198
213 230 221 182 180 165 141 135 142 147 253 247 253 265 249 248 238 181 206 209 229 233 249 257 272 274 263 254 247 247 249 221 193 175 202 221 232 247 250 253 258 261 270 275 278 276 276 278 274 268 269 272 272 258 252 222 213 209 217 223 232 237 238 242 242 243 239 230 233 233 241 240 234 224 214 199 189 184 190 202 159 174 194 198 182
212 248 234 141 177 150 142 211 228 221 230 228 228 237 255 265 242 190 204 206 220 224 227 234 243 252 245 240 242 249 250 260 240 169 191 213 224 230 235 240 244 248 249 255 269 264 262 266 271 261 257 265 278 289 287 248 238 226 212 218 231 247 236 238 239 238 245 240 241 235 235 236 231 225 223 211 200 195 198 195 179 187 196 190 180
202 264 273 141 126 109 134 162 242 262 256 261 279 265 245 240 234 228 233 225 220 224 221 221 225 239 239 233 233 231 225 225 216 189 196 204 216 219 231 232 245 255 267 279 282 291 295 288 287 6 22 14 358 332 313 296 262 250 242 238 236 255 270 241 247 237 244 245 242 241 235 233 229 226 219 207 197 201 202 199 192 194 191 189 190
188 254 295 322 36 78 11 276 253 252 263 263 295 278 287 276 262 278 285 285 286 293 305 311 304 298 284 230 231 245 247 232 228 173 183 200 211 208 231 337 26 325 319 317 316 318 334 348 345 6 351 341 328 319 312 308 295 271 255 253 265 278 277 263 264 262 252 251 246 243 240 234 231 223 219 211 201 199 201 199 198 201 203 196 189
163 188 224 255 274 262 221 210 213 218 222 210 213 240 293 291 293 283 207 203 195 239 271 287 332 327 328 332 347 353 5 343 52 104 68 51 28 18 22 25 23 48 16 334 338 330 334 335 334 340 332 323 319 311 303 301 294 269 263 269 276 280 288 280 279 274 265 261 257 253 248 242 238 231 221 216 208 202 204 201 201 202 207 211 207
149 164 188 212 224 231 229 214 200 182 170 164 165 164 167 166 153 153 156 163 131 256 243 220 211 254 290 316 344 23 32 76 79 105 101 90 84 56 36 36 12 38 22 353 335 334 328 325 321 320 315 312 313 314 313 306 297 298 298 287 272 268 254 260 254 252 255 256 257 259 256 253 255 253 249 238 221 210 206 204 205 206 204 205 204
153 162 175 189 198 209 220 222 218 205 172 160 164 168 167 160 165 201 138 80 92 315 299 327 333 311 321 342 326 354 6 65 94 108 121 125 117 100 55 23 76 26 11 346 347 326 309 297 298 310 317 322 320 318 317 318 329 324 313 303 296 279 262 252 251 247 248 245 247 255 259 257 257 259 260 249 244 235 221 215 210 208 204 194 186
152 158 167 167 176 177 190 248 291 309 293 290 239 200 187 181 183 185 163 154 147 144 292 310 321 332 329 329 334 344 335 336 355 19 17 22 67 100 81 42 49 24 335 7 347 305 290 282 285 301 306 321 331 336 340 341 335 337 342 344 331 308 293 276 262 258 255 257 254 254 259 283 318 303 259 250 245 229 205 210 206 197 166 155 137
151 154 171 166 166 178 173 186 219 357 4 20 1 320 250 208 205 184 166 188 188 206 221 260 287 290 293 290 294 326 318 323 333 341 350 348 353 357 355 7 358 347 358 339 334 332 328 332 327 307 290 292 315 347 346 351 351 348 343 341 330 320 299 279 267 274 282 284 286 291 319 306 313 330 8 206 227 350 288 227 214 188 170 164 154
147 147 143 143 146 168 164 163 140 69 33 20 13 9 357 318 219 199 205 205 212 236 242 258 256 260 273 278 284 333 296 339 7 5 354 358 348 342 337 341 350 354 326 325 332 330 330 327 325 338 345 354 7 14 15 9 0 348 343 341 338 330 323 318 313 324 319 296 292 302 304 318 317 12 64 82 76 49 41 96 107 93 117 140 137
119 119 118 109 74 89 90 119 142 140 103 38 38 27 346 336 0 5 23 18 12 345 327 333 354 360 328 305 286 291 251 37 52 27 351 355 333 320 333 341 348 325 342 359 329 333 341 355 350 350 1 4 8 8 6 357 351 350 358 359 352 351 350 1 347 331 322 316 294 285 289 315 0 24 41 54 46 50 60 84 78 113 101 48 63
118 119 121 118 124 107 93 93 111 134 140 144 124 63 57 53 15 353 0 49 55 61 67 66 25 350 335 313 298 292 290 307 5 2 348 347 343 302 275 288 315 6 8 341 333 332 346 342 357 354 356 6 8 8 1 352 348 348 356 3 9 7 8 9 14 356 347 348 349 345 355 12 38 44 63 77 76 83 83 99 105 111 108 108 109
130 134 128 139 144 137 140 131 130 135 153 155 155 150 301 6 36 41 19 12 17 33 80 97 72 38 314 297 325 334 327 339 350 344 340 338 343 352 4 19 50 37 21 4 343 356 347 343 352 350 355 359 5 2 357 353 350 347 345 357 11 13 14 20 12 15 23 24 25 28 34 50 61 61 76 86 95 83 75 82 105 109 120 127 125
165 170 144 159 145 129 143 141 137 135 132 139 145 154 167 302 302 24 65 295 300 302 315 316 297 201 88 261 287 296 23 19 354 343 334 339 342 1 56 75 45 31 355 182 313 326 337 342 334 345 344 352 4 356 357 353 347 346 344 352 4 14 18 20 1 21 31 42 49 50 53 62 73 76 86 93 86 81 91 101 103 110 109 108 120
139 134 145 155 163 157 142 148 145 156 157 159 163 169 168 181 246 269 284 238 249 255 255 251 262 276 271 238 191 220 263 291 308 324 333 334 2 36 61 309 14 351 328 167 314 306 314 319 316 322 335 332 339 344 350 349 345 345 349 350 356 6 12 10 3 43 44 48 60 80 86 90 96 98 101 109 111 115 115 118 117 118 122 123 122
115 139 168 191 171 224 155 159 158 178 176 175 169 170 184 193 214 210 269 294 285 258 234 240 232 217 270 260 251 241 244 269 293 306 306 11 54 35 9 330 318 305 68 301 292 301 310 303 308 313 316 314 313 323 322 331 336 330 332 342 347 1 10 4 36 41 51 60 69 80 80 86 86 99 99 98 93 93 91 87 106 116 112 127 132
109 186 191 173 203 223 217 185 168 160 162 180 182 181 190 197 201 204 213 244 264 289 295 200 200 204 214 226 234 229 233 238 253 242 181 142 107 348 335 324 322 326 341 287 273 276 283 290 297 305 302 303 304 301 302 298 298 301 303 306 316 342 9 32 40 44 60 75 83 82 83 90 89 88 99 104 109 99 85 63 46 85 114 122 118
195 131 303 244 176 195 209 221 214 200 193 173 178 188 201 204 212 219 220 231 257 259 279 269 149 191 213 242 223 198 199 218 218 194 167 146 146 122 205 279 298 297 302 293 272 267 257 261 262 266 265 269 275 273 263 277 271 272 262 262 260 259 336 81 79 66 68 76 85 90 90 89 84 89 90 83 77 78 82 77 73 73 78 87 99
242 221 139 132 145 166 182 197 216 214 186 180 181 195 202 210 208 209 223 233 247 241 252 288 272 173 185 200 174 180 184 162 178 172 163 156 160 170 209 225 254 274 273 284 288 291 277 263 257 259 250 251 248 245 238 243 238 240 242 238 248 241 222 205 161 139 131 115 107 105 105 106 103 99 103 104 101 104 109 94 82 80 94 116 120
13 31 52 123 145 153 149 186 212 204 195 199 208 205 192 182 178 203 230 244 241 247 257 243 226 276 280 275 176 183 160 147 116 95 89 104 194 216 215 220 240 253 265 268 267 281 286 286 272 260 257 245 245 228 226 228 220 224 234 228 231 242 238 215 156 147 145 142 138 133 131 125 131 134 128 129 134 141 137 141 146 141 136 141 151
52 57 55 58 92 132 155 156 169 188 201 203 194 195 181 180 184 213 231 237 246 250 249 210 236 253 241 170 176 178 151 227 240 253 216 213 212 221 218 224 231 240 247 252 261 266 273 280 279 270 255 245 242 233 225 228 214 216 213 219 230 230 232 213 199 185 181 175 157 157 155 148 148 149 151 146 149 150 149 144 144 144 144 140 134
40 43 52 57 56 52 75 72 104 154 204 227 249 243 332 292 258 253 242 244 246 232 223 226 246 236 216 157 179 176 206 239 256 248 235 216 216 220 217 217 223 231 243 245 242 249 260 266 269 269 257 242 236 234 223 225 219 215 206 215 221 228 229 226 217 203 194 181 176 168 165 166 157 153 151 163 155 154 158 159 157 154 148 140 139
38 37 48 40 54 70 65 73 48 30 12 14 17 23 15 342 310 267 244 248 255 266 262 253 243 239 201 213 196 186 209 228 228 224 222 219 206 208 213 221 224 235 235 240 244 250 255 267 269 267 261 248 234 227 221 217 217 215 214 213 220 228 225 222 220 216 206 193 186 179 174 169 167 164 169 165 152 155 158 152 149 152 149 148 151
50 53 52 50 47 57 57 53 48 47 48 42 36 22 12 351 328 296 277 267 260 263 275 276 273 261 224 206 200 196 205 239 233 242 241 230 234 232 227 227 228 232 245 246 238 252 258 267 272 272 272 257 236 224 215 218 213 213 209 214 216 222 225 222 213 213 209 205 194 188 180 177 172 185 162 152 163 162 158 165 164 159 160 159 159
54 53 49 47 49 48 47 39 39 36 31 27 18 17 20 17 17 10 350 323 306 296 291 281 282 283 274 208 207 194 223 242 263 258 259 253 250 251 250 250 248 244 242 249 246 241 252 262 272 279 273 256 228 214 211 215 205 210 208 208 210 214 222 224 220 218 213 209 203 193 186 178 179 182 174 171 166 168 168 165 166 168 165 166 165
56 51 48 46 43 43 42 41 39 39 38 36 41 38 35 28 29 30 36 33 25 10 349 330 322 319 324 66 101 186 246 254 261 264 274 277 272 268 272 275 273 272 264 261 255 249 253 265 274 275 266 248 233 221 223 219 204 206 206 203 206 208 213 219 219 216 205 206 203 200 193 192 189 180 180 178 168 170 172 172 173 175 171 173 171
48 48 50 47 44 42 40 39 40 40 39 39 36 36 34 35 33 35 37 34 33 32 29 20 12 4 355 359 62 277 285 290 285 281 273 271 277 280 283 281 277 271 271 267 265 261 262 265 266 268 273 255 230 225 225 216 211 213 207 201 203 205 209 210 214 205 197 202 206 204 200 198 196 193 191 184 181 179 179 179 179 172 177 177 179
47 49 52 52 50 47 45 43 40 42 43 43 42 41 38 37 37 37 36 35 37 36 33 32 32 32 29 24 17 13 345 313 313 316 304 296 298 294 290 282 280 274 273 278 277 271 269 274 279 281 278 279 267 245 226 219 214 217 215 215 216 220 217 203 188 189 198 203 205 203 201 200 203 202 198 188 187 190 188 181 181 182 185 184 189
41 41 45 47 49 50 49 47 49 49 49 50 48 47 42 39 39 39 38 38 37 36 37 34 30 30 29 30 29 30 24 21 13 4 350 11 5 345 328 316 302 303 300 295 294 294 296 296 299 299 297 294 287 267 255 234 225 220 221 222 230 232 230 208 192 192 199 200 200 202 201 200 199 200 201 200 196 194 194 189 191 191 193 192 191
43 43 38 41 47 50 48 46 46 46 43 43 44 42 37 37 37 40 42 39 38 36 36 33 31 28 26 26 23 24 23 23 22 21 23 24 19 20 18 9 356 358 345 333 333 342 347 354 353 350 344 335 324 307 284 266 244 243 235 235 233 238 229 207 214 208 206 198 199 203 201 204 205 199 197 196 198 195 196 201 196 199 195 195 197
46 51 56 47 44 49 51 51 51 49 44 44 47 47 45 45 43 42 40 39 39 38 38 36 32 28 28 24 24 24 24 26 25 22 21 17 13 13 14 12 11 12 11 9 3 10 20 29 25 20 17 15 16 12 8 8 1 347 329 306 286 262 238 220 224 223 206 205 205 207 208 211 209 204 199 202 202 199 203 201 196 197 198 198 196
50 47 54 56 46 44 51 52 50 52 56 49 48 51 46 48 47 46 42 38 39 36 35 37 37 31 30 28 27 27 28 25 20 19 18 16 14 11 13 15 14 12 12 13 13 9 28 37 25 21 21 19 17 18 13 15 18 13 13 359 7 10 354 304 252 234 208 207 205 205 206 211 210 207 204 205 204 201 206 206 203 197 199 197 201
51 48 49 53 51 40 47 47 41 37 41 43 43 45 47 47 49 48 48 46 40 36 35 35 35 34 31 28 26 26 25 27 24 22 21 21 16 13 7 8 19 17 10 16 18 16 19 39 34 22 18 19 16 17 18 16 16 10 3 7 12 8 6 6 333 267 247 235 216 208 208 209 205 209 207 205 200 205 207 205 200 200 202 201 202